Location: ??
(34.7707°N, 135.6540°E)
Time: 21:05:38
(UTC+00:00)

Tiangong - Pass Details

Date: 30 September 2021
Orbit: 382 x 385 km, 41.5° (Epoch: 19 October)

Event Time Altitude Azimuth Distance (km) Brightness Sun altitude
Exits shadow 18:38:39 15° 49° (NE) 1,153 4.2 -27.9°
Drops below altitude 10° 18:39:18 10° 54° (NE) 1,395 4.7 -27.7°
Sets 18:41:27 0° 62° (ENE) 2,248 6.2 -27.3°
